Tracking 25953 objects as of 16-Aug-2022
HD Live streaming from Space Station
objects crossing your sky now

STARLINK-3870

Track STARLINK-3870 now!
10-day predictions
STARLINK-3870 is classified as:


NORAD ID: 52451
Int'l Code: 2022-049A
Perigee: 545.6 km
Apogee: 548.2 km
Inclination: 53.2 °
Period: 95.4 minutes
Semi major axis: 6917 km
RCS: Unknown
Launch date: May 6, 2022
Source: United States (US)
Launch site: AIR FORCE EASTERN TEST RANGE (AFETR)
aabbcc
Your satellite tracking list
Your tracking list is empty




NASA's NSSDC Master Catalog

Two Line Element Set (TLE):
1 52451U 22049A   22228.00001157 -.00035090  00000-0 -21974-2 0  9998
2 52451  53.2158 152.6268 0001830  60.1016 146.4678 15.08839223 15765
Source of the keplerian elements: AFSPC